#timestamp,LO_Frequency,Hit,StdDev 
1509260415.6,286047014.4,N
1509260435.4,286047016.5,N
1509260455.3,286047020.9,N
1509260475.1,286047023.2,N
1509260495.9,286047030.0,Y
1509260515.7,286047019.5,P
1509260535.5,286047016.5,P
1509260555.4,286047016.9,P
1509260575.2,286047015.0,Y
1509260595.0,286046997.1,P
1509260595.9,286046997.1,N
1509260615.8,286046995.5,N
1509260635.6,286046997.2,N
1509260655.4,286046993.7,N
1509260675.3,286046992.0,N
1509260695.1,286046994.0,N
1509260715.8,286046997.9,N
1509260735.7,286046997.0,N
1509260755.5,286046997.2,N
1509260775.3,286046999.3,N
1509260795.2,286046998.3,N
1509260815.0,286047003.5,N
1509260815.9,286047003.5,N
1509260835.8,286047006.2,N
1509260855.6,286047005.2,N
1509260875.4,286047016.1,N
1509260895.3,286047016.4,N
1509260915.1,286047013.0,N
1509260916.0,286047013.0,N
1509260935.8,286047010.7,N
1509260955.7,286047008.4,N
1509260975.5,286047008.3,N
1509260995.3,286047012.0,N
1509261015.2,286047012.6,N
1509261035.9,286047014.7,N
1509261055.7,286047011.3,N
1509261075.6,286047011.9,N
1509261095.4,286047013.4,N
1509261115.2,286047011.6,N
1509261135.1,286047012.3,N
1509261136.0,286047012.3,N
1509261155.8,286047008.5,N
1509261175.6,286047002.9,N
1509261195.5,286047006.0,N
1509261215.3,286047004.5,N
1509261235.1,286047007.5,N
1509261255.9,286047003.1,N
1509261275.7,286047000.2,N
1509261295.5,286047005.1,N
1509261315.4,286047005.5,N
1509261335.2,286047004.0,N
1509261355.0,286047001.8,N
1509261355.9,286047001.8,N
1509261375.8,286047005.4,N
1509261395.6,286047001.6,N
1509261415.4,286047000.4,N
1509261435.3,286046999.2,N
1509261455.1,286047002.4,N
1509261475.8,286047001.8,N
1509261495.7,286047006.0,N
1509261515.5,286047000.6,N
1509261535.3,286047000.8,N
1509261555.2,286046995.5,N
1509261575.0,286046996.2,N
1509261575.9,286046996.2,N
1509261595.8,286046995.5,N
1509261615.6,286046995.0,N
1509261635.4,286046996.6,N
1509261655.2,286046997.1,N
1509261675.1,286046998.0,N
1509261676.0,286046998.0,N
1509261695.8,286046999.2,N
1509261715.7,286046997.4,N
1509261735.5,286047000.4,N
1509261755.3,286047002.0,N
1509261775.2,286047001.5,N
1509261795.9,286046998.4,N
1509261815.7,286046994.4,N
1509261835.6,286046993.2,N
1509261855.4,286046994.5,N
1509261875.2,286046988.6,Y
1509261895.1,286046996.3,P
1509261896.0,286046996.3,N
1509261915.8,286046989.3,P
1509261935.7,286046987.4,Y
1509261955.5,286046995.9,P
1509261975.3,286046992.4,P
1509261995.2,286046991.9,P
1509262015.9,286046990.2,Y
1509262035.7,286047004.3,P
1509262055.6,286047002.4,N
1509262075.4,286047000.0,N
1509262095.2,286046997.9,N
1509262115.1,286046998.0,N
1509262116.0,286046998.0,N
1509262135.8,286046995.8,N
1509262155.6,286046996.9,N
1509262175.5,286046998.5,N
1509262195.3,286047002.2,N
1509262215.1,286046995.1,N
1509262235.9,286046994.7,N
1509262255.7,286046993.6,N
1509262275.5,286046992.5,N
1509262295.4,286046991.0,N
1509262315.2,286046992.7,N
1509262335.0,286046988.5,Y
1509262336.0,286046988.5,P
1509262355.8,286046994.4,N
1509262375.6,286046997.9,N
1509262395.5,286047000.7,N
1509262415.3,286046998.8,N
1509262435.1,286046994.9,N
1509262455.9,286046996.1,N
1509262475.7,286046995.8,N
1509262495.5,286047000.0,N
1509262515.4,286047004.2,N
1509262535.2,286047002.0,N
1509262555.0,286047002.5,N
1509262555.9,286047002.5,N
1509262575.8,286047000.8,N
1509262595.6,286046999.6,N
1509262615.4,286046996.6,N
1509262635.3,286046999.5,N
1509262655.1,286046997.4,N
1509262675.8,286046999.6,N
1509262695.7,286046997.0,N
1509262715.5,286046995.7,N
1509262735.3,286046993.8,N
1509262755.2,286046997.5,N
1509262775.9,286046996.4,N
1509262795.7,286046997.8,N
1509262815.6,286046997.5,N
1509262835.4,286046990.2,Y
1509262855.2,286046999.2,P
1509262875.1,286046995.5,P
1509262876.0,286046995.5,N
1509262895.8,286046997.5,N
1509262915.6,286046997.9,N
1509262935.5,286046998.6,N
1509262955.3,286047000.8,N
1509262975.2,286047007.2,Y
1509262995.9,286047007.6,P
1509263015.7,286047003.6,N
1509263035.6,286047005.9,N
1509263055.4,286047003.5,N
1509263075.2,286046999.8,N
1509263095.1,286046995.0,N
1509263096.0,286046995.0,N
1509263115.8,286046997.5,N
1509263135.6,286046997.4,N
1509263155.5,286046998.8,N
1509263175.3,286047000.0,N
1509263195.1,286046999.0,N
1509263215.9,286046998.6,N
1509263235.7,286046998.7,N
1509263255.5,286046997.4,N
1509263275.4,286046992.1,N
1509263295.2,286046994.0,N
1509263315.0,286046996.7,N
1509263315.9,286046996.7,N
1509263335.8,286046995.2,N
1509263355.6,286046993.3,N
1509263375.4,286046992.1,N
1509263395.3,286046988.8,N
1509263415.1,286046991.8,N
1509263435.8,286046995.9,N
1509263455.7,286046994.4,N
1509263475.5,286046989.9,N
1509263495.3,286046989.0,N
1509263515.2,286046990.4,N
1509263535.0,286046993.8,N
1509263535.9,286046993.8,N
1509263555.7,286046992.3,N
1509263575.6,286046990.5,N
1509263595.4,286046989.8,N
1509263615.3,286046986.1,Y
1509263635.1,286046988.9,P
1509263636.0,286046988.9,P
1509263655.8,286046991.2,P
1509263675.7,286046990.4,Y
1509263695.5,286047000.1,P
1509263715.3,286047001.0,N
1509263735.2,286046996.9,N
1509263755.0,286046999.5,N
1509263755.9,286046999.5,N
1509263775.7,286047002.5,N
1509263795.6,286047001.8,N
1509263815.4,286046998.6,N
1509263835.2,286046999.0,N
1509263855.1,286047002.0,N
1509263856.0,286047002.0,N
1509263875.8,286046998.8,N
1509263895.7,286046997.0,N
1509263915.5,286046993.8,N
1509263935.3,286046990.3,Y
1509263955.2,286046996.0,P
1509263975.9,286046997.1,N
1509263995.7,286047002.2,N
